FENGYUN 1C DEB, 36681

Orbit data source: Space-Track

FENGYUN 1C DEB, 36681 is space debris in SSO originally from a launch on Mon, 10 May 1999 UTC launched from the Taiyaun Space Center, China (TSC). Fengyun 1C debris stems from the Chinese weather satellite Fengyun-1C, which was intentionally destroyed by a Chinese anti-satellite missile in 2007. This event dramatically increased the amount of space debris, with thousands of trackable fragments posing hazards to satellites and human spaceflight. The Fengyun 1C debris cloud has become a focal point in discussions about space sustainability and the need for international regulations to prevent the creation of new debris.

Loading next visibility...
Identifier
36681, 1999-025DZB
Orbit
SSO
Country
Flag of CNCN / PRC
Related business
Manufacturer
Unknown
Mission
Spacecraft
Bus & Motor
Unknown
Mass
Unknown
Launch date (UTC)
1999-05-10 (27 years ago)
Launch vehicle
Unknown
Launch site
Taiyaun Space Center, China (TSC)
Object type
Payload
Rocket body
Debris
Shape & HBR
Unknown shape, 0.1 m
Radar Cross Section
Small (<0.1 m²)

Expand to show TLE details & history
Last TLE update: 16 hours ago

TLE from 16 hours ago
0 FENGYUN 1C DEB
1 36681U 99025DZB 26254.20247684  .00000626  00000-0  37042-3 0  9994
2 36681  98.7089 249.2177 0042716 296.9583  62.7229 14.10794987765995
Epoch: 2026-09-11T04:51Z
TLE epoch observation values (Epoch: 2026-09-11T04:51:33.998Z)
Latitude
-0.00001°
Longitude
-173.90317°
Altitude
845.493 km
Speed
7.437 km/s
True Right ascension
16h 36m 52s
True Declination
0° 00' 00"
Sunlit
Object was in daylight at epoch
Visualization orbit readout
Latitude
Unknown
Longitude
Unknown
Altitude
Unknown
Speed
Unknown
Apparent Right ascension
Unknown
Apparent Declination
Unknown
Sunlit
N/A
Visualization observer readout
Local Sidereal Time
13:18:05
Azimuth
Unknown
Elevation
Unknown
Doppler factor
Unknown
Orbital elements
Apogee altitude
884.715 km
Perigee altitude
822.931 km
Semi-major axis
7,231.96 km
Eccentricity
0.00427
Inclination
98.7089°
RAAN
249.2177°
Arg. of periapsis
296.9583°
True anomaly
63.15902°
Mean anomaly
62.7229°
Eccentric anomaly
62.94085°
Mean motion
3.52906 °/min
Orbital period
102.01 mins
BSTAR
0.00037042
Loading maneuver chart data...
Computing Atmospheric mass density...
Loading historical data...
Loading historical data...
Loading historical data...
Loading historical data...
Loading historical data...
Loading historical data...
Loading historical data...

Documentation

Showing up to 5 results
|